Weather in Belovo

Russia / Kostroma Oblast     58°45′37″N   42°31′20″E
temp.,
°C
wind,
m/s
gust,
m/s
humid.,
%
clouds,
%
prec.,
mm/h
press.,
hPa
HPBL,
m
12 april, mon
mon1200:00+3nw1198100 0.0 103420
03:00+1ese119779 0.0 103610
06:00+3ese2594100 0.0 103789
09:00+6sse378367 0.0 1037330
12:00+11s357141 0.0 1037824
15:00+12sse346691 0.0 10361001
18:00+10se3781100 0.0 1035220
21:00+8se41289100 0.0 1035421
13 april, tue
tue1300:00+6sse41391100 0.0 1034448
03:00+5sse41294100 0.0 1032405
06:00+5sse31098100 0.0 1031367
09:00+8s4890100 0.0 1030367
12:00+14s4969100 0.0 1028618
15:00+16s496296 0.0 1026976
18:00+14s41071100 0.0 1025367
21:00+10s31279100 0.0 1026274
14 april, wed
wed1400:00+8ssw3138060 0.0 1025256
03:00+7ssw388243 0.0 1025143
06:00+6s388198 0.0 1025140
09:00+12ssw48615 0.0 1024306
12:00+17ssw58465 0.0 1023849
15:00+18ssw47405 0.0 10211501
18:00+15s394971 0.0 1020294
21:00+11s31169100 0.0 1020235
15 april, thu
thu1500:00+9ssw397863 0.0 1020149
03:00+7sw268397 0.0 102094
06:00+7w1182100 0.0 102012
09:00+11nne117146 0.0 1020276
12:00+15n1157100 0.0 1019856
15:00+14n4261100 0.0 1019804
18:00+9nne4779100 0.0 1020435
21:00+5nne4888100 0.0 1020367
16 april, fri
fri1600:00+5nne3890100 0.0 1020430
03:00+4nne4893100 0.3 1020546
06:00+3nne4996100 0.9 1021561
09:00+5nne5864100 0.9 1022939
12:00+8n69435 0.0 10231468
15:00+9n69375 0.0 10241782
18:00+7n69525 0.0 10251436
21:00+2n511675 0.0 1028907